Home   Weather   Copenhagen   Past weeks

Flag for Denmark Past Weather in Copenhagen, Denmark — Yesterday and Last 2 Weeks

Now
70 °F

Clear.


Feels Like: 70 °F
Forecast: 62 / 76 °F
Wind: No wind

Location: Koebenhavn-Kastrup Airport

Current Time: Jul 22, 2018 at 11:38:42 pm

Latest Report: Jul 22, 2018 at 10:50 pm


Visibility: 10 mi

Pressure: 29.92 "Hg

Humidity: 64%

Dew Point: 57 °F

Location of CopenhagenLocation

Past Weather in Copenhagen — Graph

°F

Copenhagen Temperature Yesterday

Maximum temperature yesterday: 77 °F (at 12:20 pm)
Minimum temperature yesterday: 59 °F (at 2:50 am)
Average temperature yesterday: 70 °F

High & Low Weather Summary for the Past Weeks

 TemperatureHumidityPressure
High82 °F (Jul 13, 3:20 pm)94% (Jul 16, 4:50 am)30.12 "Hg (Jul 16, 4:50 am)
Low55 °F (Jul 9, 4:20 am)32% (Jul 13, 3:50 pm)29.86 "Hg (Jul 21, 7:20 pm)
Average69 °F66%29.98 "Hg
* Reported Jul 7 10:20 pm — Jul 22 10:20 pm, Copenhagen. Weather by CustomWeather, © 2018

Note: Actual official high and low records may vary slightly from our data, if they occured in-between our weather recording intervals... More about our weather records

Advertising

Copenhagen Weather History for the Previous 24 Hours

Scroll right to see more
 ConditionsComfort  
Time TempWeatherWind HumidityBarometerVisibility
10:20 pm
Sun, Jul 22
70 °FClear.No wind64%29.89 "Hg10 mi
9:50 pm72 °FClear.1 mph61%29.89 "Hg10 mi
9:20 pm72 °FSunny.1 mph61%29.89 "Hg10 mi
8:50 pm72 °FSunny.3 mph61%29.89 "Hg10 mi
8:20 pm72 °FSunny.7 mph61%29.89 "Hg10 mi
7:50 pm73 °FSunny.7 mph57%29.89 "Hg10 mi
7:20 pm73 °FSunny.7 mph61%29.89 "Hg10 mi
6:50 pm75 °FPassing clouds.5 mph57%29.89 "HgN/A
6:20 pm77 °FSunny.5 mph54%29.89 "Hg10 mi
5:50 pm77 °FPassing clouds.6 mph47%29.86 "HgN/A
5:20 pm77 °FSunny.8 mph51%29.86 "Hg10 mi
4:50 pm75 °FSunny.8 mph54%29.86 "Hg10 mi
3:50 pm77 °FSunny.10 mph47%29.89 "Hg10 mi
3:20 pm77 °FPassing clouds.7 mph47%29.89 "HgN/A
2:50 pm73 °FPassing clouds.8 mph57%29.89 "HgN/A
2:20 pm75 °FPassing clouds.5 mph44%29.89 "HgN/A
1:50 pm73 °FPassing clouds.5 mph53%29.89 "HgN/A
1:20 pm73 °FPartly sunny.6 mph53%29.89 "HgN/A
12:50 pm73 °FPartly sunny.5 mph57%29.89 "HgN/A
12:20 pm72 °FPartly sunny.6 mph57%29.89 "HgN/A
11:50 am72 °FPassing clouds.5 mph61%29.89 "HgN/A
11:18 am72 °FPassing clouds.6 mph65%29.89 "HgN/A
10:50 am77 °FPassing clouds.5 mph42%29.89 "HgN/A
10:20 am73 °FSunny.2 mph47%29.89 "Hg10 mi
9:50 am73 °FSunny.3 mph50%29.89 "Hg10 mi
9:20 am72 °FSunny.3 mph57%29.89 "Hg10 mi
8:50 am70 °FSunny.6 mph64%29.86 "Hg10 mi
8:20 am68 °FSunny.3 mph73%29.86 "Hg10 mi
7:50 am66 °FSunny.3 mph78%29.86 "Hg10 mi
7:20 am64 °FSunny.5 mph83%29.86 "Hg10 mi
6:50 am63 °FSunny.6 mph83%29.86 "Hg10 mi
6:20 am63 °FPassing clouds.5 mph83%29.86 "HgN/A
5:50 am63 °FSunny.3 mph83%29.86 "Hg10 mi
5:20 am61 °FSunny.5 mph83%29.86 "Hg10 mi
4:50 am59 °FClear.5 mph88%29.86 "Hg10 mi
4:20 am61 °FClear.6 mph83%29.86 "Hg10 mi
3:50 am61 °FClear.5 mph83%29.86 "Hg10 mi
3:20 am61 °FClear.6 mph83%29.86 "Hg10 mi
2:50 am63 °FClear.6 mph88%29.86 "Hg10 mi
2:20 am64 °FClear.5 mph83%29.86 "Hg10 mi
1:50 am64 °FClear.3 mph83%29.86 "Hg10 mi
1:20 am66 °FClear.2 mph73%29.86 "Hg10 mi
12:50 am66 °FClear.2 mph78%29.86 "Hg10 mi
12:20 am68 °FClear.1 mph73%29.86 "Hg10 mi
11:50 pm
Sat, Jul 21
68 °FClear.3 mph69%29.89 "Hg10 mi
11:20 pm70 °FClear.2 mph60%29.86 "Hg10 mi
Weather by CustomWeather, © 2018

See weather overview